Find Starlink 32708

NORAD ID: 62495 Int'l Des: 2025-003 Owner: SPXS Country: US Constellation: starlink operational
LEOCIRCULAR

当前视图

正在加载3D地球...

About Starlink 32708

Starlink 32708 (NORAD 62495) is a starlink constellation satellite (v2 mini) launched Jan 6, 2025 by SPXS of US. It operates in LEO, CIRCULAR orbit with a mass of 730.00 kg.

关于 Starlink 32708

正在加载描述...

即将过境

Passes for default location (London). Set your location on the main map for personalized predictions.

高度历史

Loading altitude history...

两行轨道根数

1 62495U 25003J 26170.12901546 .00013962 00000-0 51553-3 0 9993
2 62495 43.0035 76.2459 0001655 270.2996 89.7666 15.27604696 82062
Epoch: Jun 19, 2026 • Age: 5 hours

当前状态

高度 482.6 km
速度 7.63 km/s
星下点 16.94°N, 67.8°E
发射日期 Jan 6, 2025
运行时间 1.4 years
类型 internet

技术详情

分类 Payload
质量 730.00 kg
干质量 700.00 kg
总质量 730.00 kg
长度 0.30 m
直径 4.10 m
跨度 29.00 m
形状 Box + pan
制造商 SPXS
平台类型 Starlink V2M
阶段状态 In Orbit
所有者/国家 SPXS/US

Most Searched